If you wish to contribute or participate in the discussions about articles you are invited to join SKYbrary as a registered user

 Actions

Liège

From SKYbrary Wiki

EBLG
Airport
ICAO: EBLG
Summary
Name Liège
Region Europe
Territory Belgium BE.gif
Location Liège
Serving
Coordinates 50° 38' 38.94" N, 5° 27' 17.02" E
Runways
Designator Length Width Surface ROPS
05L/23R 2340 m7,677.165 ft
45 m147.638 ft
ASP yes/yes
05R/23L 3287 m10,784.121 ft
45 m147.638 ft
ASP yes/yes


METAR
Observation EBLG 191020Z 24013KT 9999 SCT037 19/09 Q1017 NOSIG
Station Bierset
Date/Time 19 August 2019 10:20:00
Wind direction 240°
Wind speed 13 kts
Lowest cloud amount scattered clouds
Temperature 19°C
Dew point 9°C
Humidity 52%
QNH 1017 hPa
Weather condition n/a


Liège Airport

ICAO: EBLG IATA: LGG

Description

Liège Airport, also called Liège-Bierset, is a cargo airport in Belgium.

Climatology

Temperate Marine climate/Oceanic climate (Köppen climate classification Cfb) - Moderately cool summer and comparatively warm winter.

Maps

Terrain

Loading map...

Airport Layout

Loading map...




Accidents & Serious Incidents at or in vicinity of EBLG

None on SKYbrary